EW2811 Weather Reports


Display with metric or nautical units.
time (UTC)temp
F
wind
direction
speed
MPH
gust
MPH
rain 1hr
in
rain 24hr
in
rain mn
in
humidity
%
barometer
mb
20260906165347 78 121 0.0 0.0 0.00 0.00 0.00 76 1019.6
20260906164346 77 290 0.0 0.0 0.00 0.00 0.00 79 1019.6
20260906163344 76 290 0.0 0.0 0.00 0.00 0.00 79 1019.7
20260906162349 74 290 0.0 0.0 0.00 0.00 0.00 83 1020.0
20260906162345 75 298 0.0 0.0 0.00 0.00 0.00 82 1019.8
20260906160345 74 298 0.0 0.0 0.00 0.00 0.00 84 1020.0
20260906155344 73 306 0.0 0.0 0.00 0.00 0.00 86 1020.0
20260906154344 73 291 0.0 0.0 0.00 0.00 0.00 87 1019.7
20260906153343 72 292 0.0 0.0 0.00 0.00 0.00 88 1019.9
20260906152343 72 292 0.0 0.0 0.00 0.00 0.00 89 1020.0
20260906151340 71 292 0.0 0.0 0.00 0.00 0.00 90 1020.1
20260906150338 71 292 0.0 0.0 0.00 0.00 0.00 90 1019.9
20260906145338 70 110 0.0 0.0 0.00 0.00 0.00 91 1019.9
20260906144339 70 98 0.0 0.0 0.00 0.00 0.00 91 1020.0
20260906143337 69 303 0.0 0.0 0.00 0.00 0.00 91 1020.0
20260906142339 69 303 0.0 0.0 0.00 0.00 0.00 91 1019.9
20260906142335 69 303 0.0 0.0 0.00 0.00 0.00 91 1020.0
20260906140339 68 119 0.0 0.0 0.00 0.00 0.00 91 1019.8
20260906140335 68 119 0.0 0.0 0.00 0.00 0.00 91 1019.9
20260906134339 68 119 0.0 0.0 0.00 0.00 0.00 91 1019.6
20260906134334 68 119 0.0 0.0 0.00 0.00 0.00 91 1019.7
20260906132335 67 119 0.0 0.0 0.00 0.00 0.00 91 1019.5
20260906131334 67 119 0.0 0.0 0.00 0.00 0.00 91 1019.5
20260906130338 67 119 0.0 0.0 0.00 0.00 0.00 91 1019.5
20260906130333 67 119 0.0 0.0 0.00 0.00 0.00 91 1019.5
20260906124332 66 119 0.0 0.0 0.00 0.00 0.00 91 1019.5
20260906123332 66 119 0.0 0.0 0.00 0.00 0.00 91 1019.5
20260906122333 66 119 0.0 0.0 0.00 0.00 0.00 91 1019.2
20260906121333 66 119 0.0 0.0 0.00 0.00 0.00 91 1019.2
20260906120333 66 119 0.0 0.0 0.00 0.00 0.00 91 1019.1
20260906115330 66 119 0.0 0.0 0.00 0.00 0.00 91 1019.1
20260906114330 66 119 0.0 0.0 0.00 0.00 0.00 91 1018.9
20260906113330 66 119 0.0 0.0 0.00 0.00 0.00 91 1018.9
20260906112329 67 119 0.0 0.0 0.00 0.00 0.00 91 1018.8
20260906111329 67 119 0.0 0.0 0.00 0.00 0.00 91 1018.9
20260906110329 67 119 0.0 0.0 0.00 0.00 0.00 91 1018.7
20260906105329 67 119 0.0 0.0 0.00 0.00 0.00 91 1018.7
20260906104327 67 119 0.0 0.0 0.00 0.00 0.00 91 1018.5
20260906103334 68 119 0.0 0.0 0.00 0.00 0.00 91 1018.5
20260906103330 68 119 0.0 0.0 0.00 0.00 0.00 91 1018.5
20260906101326 68 119 0.0 0.0 0.00 0.00 0.00 91 1018.5
20260906100324 68 119 0.0 0.0 0.00 0.00 0.00 91 1018.3
20260906095326 68 119 0.0 0.0 0.00 0.00 0.00 91 1018.0
20260906094324 68 119 0.0 0.0 0.00 0.00 0.00 91 1017.9
20260906093324 68 119 0.0 0.0 0.00 0.00 0.00 91 1017.8
20260906092324 68 119 0.0 0.0 0.00 0.00 0.00 91 1017.7
20260906091323 68 119 0.0 0.0 0.00 0.00 0.00 91 1017.7
20260906090323 68 119 0.0 0.0 0.00 0.00 0.00 91 1017.8
20260906085323 68 119 0.0 0.0 0.00 0.00 0.00 91 1017.8
20260906084322 68 119 0.0 0.0 0.00 0.00 0.00 91 1017.6
20260906083323 68 119 0.0 0.0 0.00 0.00 0.00 91 1017.8
20260906082326 68 119 0.0 0.0 0.00 0.00 0.00 91 1017.7
20260906082319 68 119 0.0 0.0 0.00 0.00 0.00 91 1017.8
20260906080320 68 119 0.0 0.0 0.00 0.00 0.00 91 1017.8
20260906075319 69 119 0.0 0.0 0.00 0.00 0.00 91 1017.8
20260906074320 69 119 0.0 0.0 0.00 0.00 0.00 91 1017.8
20260906073326 69 119 0.0 0.0 0.00 0.00 0.00 91 1018.1
20260906073318 69 119 0.0 0.0 0.00 0.00 0.00 91 1017.9
20260906072320 69 119 0.0 0.0 0.00 0.00 0.00 91 1017.9
20260906071420 69 119 0.0 0.0 0.00 0.00 0.00 91 1017.9
20260906065315 69 119 0.0 0.0 0.00 0.00 0.00 91 1018.1
20260906064315 69 119 0.0 0.0 0.00 0.00 0.00 91 1018.2
20260906063316 69 119 0.0 0.0 0.00 0.00 0.00 91 1018.1
20260906062316 69 119 0.0 0.0 0.00 0.00 0.00 90 1018.2
20260906061316 70 119 0.0 0.0 0.00 0.00 0.00 90 1018.3
20260906060319 70 119 0.0 0.0 0.00 0.00 0.00 90 1018.2
20260906060315 70 119 0.0 0.0 0.00 0.00 0.00 90 1018.3
20260906054316 70 119 0.0 0.0 0.00 0.00 0.00 90 1018.2
20260906053321 70 118 0.0 0.0 0.00 0.00 0.00 90 1018.1
20260906053315 70 118 0.0 0.0 0.00 0.00 0.00 90 1018.2
20260906052315 70 118 0.0 0.0 0.00 0.00 0.00 90 1018.3
20260906050315 70 118 0.0 0.0 0.00 0.00 0.00 90 1018.2
20260906045315 70 119 0.0 0.0 0.00 0.00 0.00 89 1018.2
20260906044314 70 119 0.0 0.0 0.00 0.00 0.00 89 1018.2
20260906043315 71 119 0.0 0.0 0.00 0.00 0.00 89 1018.3
20260906042314 71 119 0.0 0.0 0.00 0.00 0.00 89 1018.3
20260906041313 71 119 0.0 0.0 0.00 0.00 0.00 88 1018.2
20260906040313 71 119 0.0 0.0 0.00 0.00 0.00 88 1018.4
20260906035314 71 119 0.0 0.0 0.00 0.00 0.00 88 1018.3
20260906034312 71 119 0.0 0.0 0.00 0.00 0.00 87 1018.2
20260906033312 72 119 0.0 0.0 0.00 0.00 0.00 87 1018.5
20260906032313 72 119 0.0 0.0 0.00 0.00 0.00 86 1018.5
20260906031312 72 119 0.0 0.0 0.00 0.00 0.00 86 1018.5
20260906030312 72 119 0.0 0.0 0.00 0.00 0.00 85 1018.6
20260906025312 73 119 0.0 0.0 0.00 0.00 0.00 85 1018.7
20260906024313 73 119 0.0 0.0 0.00 0.00 0.00 84 1018.6
20260906023312 73 119 0.0 0.0 0.00 0.00 0.00 83 1018.2
20260906022312 73 119 0.0 0.0 0.00 0.00 0.00 82 1018.2
20260906021313 74 119 0.0 0.0 0.00 0.00 0.00 81 1017.9
20260906020313 74 119 0.0 0.0 0.00 0.00 0.00 81 1017.5
20260906015310 74 119 0.0 0.0 0.00 0.00 0.00 79 1017.2
20260906014310 75 120 0.0 0.0 0.00 0.00 0.00 78 1017.0
20260906013310 75 120 0.0 0.0 0.00 0.00 0.00 78 1016.7
20260906012310 76 119 0.0 0.0 0.00 0.00 0.00 77 1016.7
20260906011310 76 120 0.0 0.0 0.00 0.00 0.00 76 1016.5
20260906010311 77 120 0.0 0.0 0.00 0.00 0.00 74 1016.2
20260906005313 78 120 0.0 0.0 0.00 0.00 0.00 72 1015.8
20260906005308 77 120 0.0 0.0 0.00 0.00 0.00 73 1015.8
20260906003309 78 120 0.0 0.0 0.00 0.00 0.00 71 1015.9
20260906002308 79 120 0.0 0.0 0.00 0.00 0.00 71 1015.8
20260906001312 80 120 0.0 0.0 0.00 0.00 0.00 70 1015.9
20260906001308 79 120 0.0 0.0 0.00 0.00 0.00 71 1015.9
20260906000306 80 120 0.0 0.0 0.00 0.00 0.00 70 1015.8
20260905235416 81 120 0.0 0.0 0.00 0.00 0.00 69 1015.8
20260905233304 81 116 0.0 0.0 0.00 0.00 0.00 68 1015.4
20260905232306 82 111 0.0 0.0 0.00 0.00 0.00 68 1015.3
20260905231304 82 105 0.0 0.0 0.00 0.00 0.00 68 1015.5
20260905230304 82 114 0.0 0.0 0.00 0.00 0.00 67 1015.2
20260905225308 83 111 0.0 0.0 0.00 0.00 0.00 65 1015.3
20260905225305 83 118 0.0 0.0 0.00 0.00 0.00 66 1015.3
20260905223303 83 86 0.0 0.0 0.00 0.00 0.00 65 1015.4
20260905222306 83 86 0.0 0.0 0.00 0.00 0.00 65 1015.7
20260905221303 83 111 0.0 0.0 0.00 0.00 0.00 65 1015.8
20260905220306 83 107 0.0 0.0 0.00 0.00 0.00 66 1015.7
20260905215305 83 109 0.0 0.0 0.00 0.00 0.00 67 1015.5
20260905214303 83 109 0.0 0.0 0.00 0.00 0.00 67 1015.4
20260905213303 83 93 0.0 0.0 0.00 0.00 0.00 66 1015.5
20260905212306 84 118 0.0 0.0 0.00 0.00 0.00 65 1015.9
20260905211303 84 137 0.0 0.0 0.00 0.00 0.00 65 1016.3
20260905210303 85 137 0.0 0.0 0.00 0.00 0.00 66 1016.5
20260905205300 85 205 0.0 0.0 0.00 0.00 0.00 64 1016.6
20260905204259 85 316 0.0 0.0 0.00 0.00 0.00 65 1016.7
20260905203305 84 113 0.0 0.0 0.00 0.00 0.00 65 1017.1
20260905203300 84 288 0.0 0.0 0.00 0.00 0.00 65 1017.0
20260905201259 84 113 0.0 0.0 0.00 0.00 0.00 65 1017.2
20260905200300 84 202 0.0 0.0 0.00 0.00 0.00 68 1017.3
20260905195300 83 202 0.0 0.0 0.00 0.00 0.00 69 1017.4
20260905194300 83 202 0.0 0.0 0.00 0.00 0.00 68 1017.5
20260905193300 83 202 0.0 0.0 0.00 0.00 0.00 66 1017.6
20260905192300 83 202 0.0 0.0 0.00 0.00 0.00 69 1017.6
20260905191300 82 276 0.0 0.0 0.00 0.00 0.00 71 1017.7
20260905190259 82 276 0.0 0.0 0.00 0.00 0.00 73 1017.6
20260905185300 80 276 0.0 0.0 0.00 0.00 0.00 76 1017.6
20260905184259 79 276 0.0 0.0 0.00 0.00 0.00 77 1017.6
20260905183258 79 306 0.0 0.0 0.00 0.00 0.00 76 1017.7
20260905182256 79 306 0.0 0.0 0.00 0.00 0.00 78 1017.9
20260905181253 78 306 0.0 0.0 0.00 0.00 0.00 81 1017.9
20260905180258 76 106 0.0 0.0 0.00 0.00 0.00 85 1018.0
20260905180254 77 105 0.0 0.0 0.00 0.00 0.00 83 1018.0
20260905174251 75 92 0.0 0.0 0.00 0.00 0.00 86 1018.1
20260905173251 75 92 0.0 0.0 0.00 0.00 0.00 87 1018.2
20260905172249 74 92 0.0 0.0 0.00 0.00 0.00 89 1018.2
20260905171249 74 92 0.0 0.0 0.00 0.00 0.00 89 1018.2
20260905170248 73 92 0.0 0.0 0.00 0.00 0.00 90 1018.4